QPF
0.01 0.01 0.01 0.01 0.00 0.00 0.01 0.01 0.01 0.01 0.01 0.01 0.00 0.00 0.00 0.00 0.00 0.00 0.00 0.00 0.00 0.00 0.00 0.00 0.00 0.00 0.01 0.01 0.02 0.02 0.03 0.03 0.02 0.02 0.02 0.03 0.04 0.05 0.05 0.05 0.05 0.04 0.04 0.03
0.01 0.00 0.00 0.00 0.00 0.00 0.00 0.00 0.00 0.00 0.00 0.00 0.00 0.00 0.00 0.00 0.00 0.00 0.00 0.00 0.00 0.00 0.00 0.00 0.00 0.00 0.00 0.00 0.01 0.01 0.01 0.02 0.02 0.01 0.01 0.01 0.02 0.02 0.02 0.03 0.03 0.03 0.02 0.02
0.01 0.00 0.01 0.01 0.00 0.00 0.00 0.00 0.00 0.00 0.00 0.00 0.00 0.00 0.00 0.00 0.00 0.00 0.00 0.00 0.00 0.00 0.00 0.00 0.00 0.00 0.00 0.00 0.00 0.01 0.01 0.01 0.02 0.02 0.01 0.01 0.01 0.01 0.01 0.01 0.01 0.01 0.01 0.01
0.02 0.01 0.02 0.00 0.00 0.00 0.00 0.00 0.00 0.00 0.00 0.00 0.00 0.00 0.00 0.00 0.00 0.00 0.00 0.00 0.00 0.00 0.00 0.00 0.00 0.00 0.00 0.00 0.00 0.00 0.00 0.01 0.01 0.01 0.01 0.01 0.01 0.01 0.00 0.00 0.00 0.00 0.00 0.01
0.04 0.03 0.02 0.01 0.00 0.01 0.01 0.01 0.00 0.00 0.00 0.00 0.00 0.00 0.00 0.00 0.00 0.00 0.00 0.00 0.00 0.00 0.00 0.00 0.00 0.00 0.00 0.00 0.00 0.00 0.00 0.00 0.00 0.01 0.01 0.01 0.01 0.01 0.01 0.01 0.01 0.00 0.00 0.00
0.04 0.04 0.02 0.01 0.00 0.00 0.01 0.02 0.01 0.00 0.00 0.00 0.00 0.01 0.01 0.01 0.00 0.00 0.00 0.00 0.00 0.00 0.00 0.00 0.00 0.00 0.00 0.00 0.00 0.00 0.00 0.00 0.00 0.00 0.00 0.01 0.01 0.01 0.02 0.02 0.01 0.01 0.01 0.01
0.05 0.05 0.03 0.02 0.01 0.01 0.03 0.03 0.01 0.01 0.01 0.01 0.01 0.01 0.01 0.00 0.00 0.00 0.00 0.00 0.00 0.00 0.00 0.00 0.00 0.00 0.00 0.00 0.00 0.00 0.00 0.00 0.00 0.00 0.00 0.01 0.01 0.01 0.01 0.01 0.01 0.01 0.01 0.01
0.05 0.07 0.07 0.04 0.02 0.04 0.05 0.03 0.02 0.01 0.01 0.01 0.01 0.01 0.00 0.00 0.00 0.00 0.00 0.00 0.00 0.00 0.00 0.00 0.00 0.00 0.00 0.00 0.00 0.00 0.00 0.00 0.00 0.01 0.01 0.01 0.01 0.01 0.01 0.01 0.02 0.02 0.02 0.02
0.06 0.06 0.05 0.04 0.04 0.04 0.03 0.02 0.02 0.02 0.02 0.01 0.01 0.01 0.01 0.01 0.00 0.00 0.00 0.00 0.00 0.00 0.00 0.00 0.00 0.00 0.00 0.00 0.00 0.00 0.00 0.00 0.00 0.00 0.01 0.01 0.01 0.01 0.01 0.01 0.01 0.01 0.01 0.02
0.07 0.07 0.05 0.04 0.05 0.05 0.03 0.03 0.03 0.02 0.02 0.02 0.02 0.02 0.02 0.01 0.01 0.01 0.01 0.01 0.00 0.00 0.00 0.00 0.00 0.00 0.00 0.00 0.00 0.00 0.00 0.00 0.00 0.00 0.00 0.00 0.01 0.01 0.01 0.01 0.01 0.01 0.01 0.01
0.05 0.05 0.05 0.04 0.04 0.03 0.03 0.02 0.02 0.02 0.02 0.02 0.02 0.02 0.02 0.01 0.01 0.01 0.01 0.01 0.01 0.01 0.00 0.00 0.00 0.00 0.00 0.00 0.01 0.00 0.00 0.00 0.00 0.00 0.00 0.00 0.00 0.00 0.01 0.01 0.01 0.01 0.01 0.01
0.06 0.04 0.03 0.04 0.02 0.02 0.01 0.01 0.01 0.02 0.03 0.03 0.02 0.02 0.02 0.01 0.01 0.01 0.01 0.01 0.01 0.00 0.00 0.00 0.01 0.01 0.01 0.00 0.00 0.00 0.01 0.00 0.00 0.00 0.01 0.01 0.01 0.01 0.00 0.01 0.01 0.01 0.01 0.01
0.03 0.03 0.03 0.02 0.02 0.01 0.01 0.01 0.01 0.01 0.01 0.02 0.02 0.02 0.02 0.02 0.01 0.01 0.01 0.01 0.01 0.01 0.01 0.01 0.02 0.02 0.01 0.01 0.01 0.01 0.01 0.01 0.01 0.01 0.01 0.01 0.01 0.01 0.00 0.00 0.00 0.00 0.01 0.01
0.02 0.02 0.03 0.02 0.01 0.01 0.01 0.01 0.01 0.01 0.01 0.01 0.01 0.01 0.01 0.01 0.01 0.01 0.01 0.01 0.01 0.01 0.01 0.02 0.02 0.01 0.01 0.01 0.01 0.01 0.01 0.01 0.01 0.01 0.01 0.01 0.01 0.01 0.01 0.00 0.00 0.00 0.01 0.01
0.02 0.02 0.02 0.01 0.01 0.01 0.01 0.02 0.02 0.02 0.02 0.01 0.01 0.01 0.00 0.00 0.00 0.00 0.00 0.00 0.01 0.01 0.01 0.01 0.01 0.01 0.01 0.00 0.00 0.01 0.01 0.01 0.01 0.01 0.01 0.01 0.01 0.01 0.00 0.00 0.00 0.01 0.01 0.01
0.02 0.01 0.01 0.01 0.02 0.02 0.02 0.02 0.01 0.01 0.01 0.01 0.01 0.01 0.00 0.00 0.00 0.01 0.01 0.01 0.01 0.01 0.01 0.01 0.01 0.01 0.01 0.01 0.01 0.01 0.01 0.01 0.01 0.01 0.01 0.01 0.01 0.01 0.01 0.01 0.01 0.01 0.01 0.01
0.02 0.02 0.02 0.02 0.02 0.02 0.02 0.03 0.02 0.02 0.02 0.01 0.01 0.00 0.00 0.01 0.01 0.01 0.01 0.01 0.01 0.01 0.01 0.01 0.01 0.01 0.01 0.01 0.01 0.01 0.01 0.01 0.01 0.01 0.01 0.01 0.01 0.01 0.01 0.01 0.02 0.02 0.02 0.02
0.02 0.03 0.03 0.03 0.03 0.03 0.04 0.04 0.03 0.03 0.03 0.02 0.01 0.01 0.01 0.02 0.02 0.02 0.02 0.02 0.02 0.01 0.01 0.01 0.01 0.00 0.00 0.01 0.01 0.01 0.01 0.01 0.01 0.01 0.01 0.01 0.02 0.02 0.02 0.03 0.03 0.03 0.03 0.03
0.02 0.02 0.02 0.02 0.03 0.03 0.03 0.03 0.03 0.03 0.03 0.03 0.03 0.03 0.03 0.03 0.03 0.02 0.02 0.01 0.01 0.01 0.01 0.00 0.00 0.00 0.00 0.01 0.01 0.01 0.01 0.01 0.01 0.01 0.01 0.01 0.01 0.02 0.02 0.02 0.02 0.03 0.03 0.02
0.02 0.01 0.01 0.01 0.01 0.01 0.01 0.02 0.02 0.02 0.02 0.03 0.03 0.03 0.02 0.02 0.02 0.01 0.01 0.01 0.01 0.01 0.01 0.01 0.00 0.00 0.00 0.01 0.01 0.01 0.01 0.01 0.01 0.01 0.01 0.01 0.01 0.01 0.01 0.02 0.02 0.01 0.02 0.01
0.02 0.01 0.01 0.01 0.01 0.01 0.01 0.01 0.01 0.01 0.01 0.01 0.02 0.02 0.02 0.01 0.01 0.01 0.01 0.01 0.00 0.00 0.00 0.00 0.00 0.00 0.00 0.00 0.00 0.01 0.01 0.01 0.01 0.01 0.01 0.01 0.01 0.01 0.01 0.01 0.01 0.01 0.01 0.01
0.02 0.01 0.01 0.01 0.01 0.01 0.01 0.01 0.01 0.01 0.00 0.00 0.00 0.00 0.00 0.01 0.00 0.00 0.00 0.00 0.00 0.00 0.00 0.00 0.00 0.00 0.01 0.01 0.01 0.01 0.01 0.01 0.01 0.00 0.01 0.01 0.01 0.01 0.01 0.01 0.01 0.01 0.01 0.01
0.01 0.01 0.01 0.01 0.01 0.01 0.01 0.01 0.01 0.01 0.00 0.00 0.00 0.00 0.00 0.00 0.00 0.00 0.00 0.00 0.00 0.00 0.00 0.00 0.00 0.01 0.01 0.01 0.01 0.01 0.01 0.01 0.01 0.01 0.01 0.01 0.01 0.01 0.01 0.01 0.01 0.01 0.01 0.01
0.01 0.01 0.01 0.01 0.01 0.01 0.01 0.01 0.01 0.01 0.00 0.00 0.00 0.00 0.01 0.00 0.00 0.00 0.00 0.00 0.00 0.00 0.00 0.00 0.00 0.01 0.01 0.01 0.01 0.01 0.01 0.01 0.01 0.01 0.01 0.01 0.01 0.01 0.01 0.01 0.01 0.01 0.01 0.01
0.01 0.01 0.01 0.00 0.01 0.00 0.00 0.00 0.00 0.00 0.00 0.00 0.00 0.00 0.01 0.01 0.00 0.00 0.00 0.00 0.00 0.00 0.00 0.00 0.00 0.01 0.01 0.01 0.01 0.01 0.01 0.00 0.00 0.01 0.01 0.01 0.01 0.01 0.00 0.00 0.00 0.00 0.01 0.01
0.01 0.01 0.01 0.00 0.00 0.00 0.00 0.00 0.00 0.00 0.00 0.00 0.00 0.00 0.00 0.00 0.00 0.00 0.00 0.00 0.00 0.00 0.00 0.00 0.00 0.00 0.01 0.01 0.01 0.01 0.00 0.00 0.00 0.00 0.00 0.00 0.00 0.01 0.00 0.00 0.00 0.00 0.00 0.00
0.00 0.00 0.00 0.00 0.00 0.00 0.00 0.00 0.00 0.00 0.00 0.00 0.00 0.00 0.00 0.00 0.00 0.00 0.00 0.00 0.00 0.00 0.00 0.00 0.00 0.00 0.01 0.01 0.01 0.01 0.00 0.00 0.00 0.00 0.00 0.00 0.00 0.00 0.00 0.00 0.00 0.00 0.00 0.00
MSLP
1022.54 1022.39 1022.17 1021.89 1021.53 1021.12 1020.66 1020.15 1019.64 1019.12 1018.64 1018.21 1017.86 1017.59 1017.39 1017.26 1017.17 1017.08 1016.96 1016.79 1016.53 1016.19 1015.76 1015.26 1014.72 1014.17 1013.64 1013.16 1012.76 1012.45 1012.23 1012.10 1012.05 1012.08 1012.16 1012.29 1012.47 1012.69 1012.95 1013.26 1013.61 1014.02 1014.48 1014.99
1022.45 1022.22 1021.89 1021.47 1020.98 1020.43 1019.86 1019.30 1018.76 1018.29 1017.89 1017.58 1017.38 1017.26 1017.21 1017.21 1017.21 1017.19 1017.12 1016.96 1016.72 1016.37 1015.94 1015.45 1014.92 1014.39 1013.87 1013.40 1012.99 1012.66 1012.40 1012.22 1012.10 1012.05 1012.05 1012.10 1012.20 1012.36 1012.56 1012.83 1013.15 1013.53 1013.97 1014.47
1022.24 1021.91 1021.46 1020.92 1020.31 1019.67 1019.02 1018.43 1017.90 1017.48 1017.17 1016.99 1016.92 1016.94 1017.01 1017.11 1017.20 1017.23 1017.19 1017.05 1016.81 1016.47 1016.06 1015.58 1015.08 1014.57 1014.08 1013.62 1013.22 1012.86 1012.57 1012.33 1012.15 1012.02 1011.94 1011.92 1011.95 1012.06 1012.22 1012.45 1012.75 1013.12 1013.55 1014.03
1021.89 1021.46 1020.91 1020.27 1019.57 1018.86 1018.19 1017.59 1017.11 1016.75 1016.55 1016.47 1016.52 1016.66 1016.83 1017.01 1017.15 1017.22 1017.20 1017.07 1016.83 1016.51 1016.11 1015.67 1015.19 1014.72 1014.25 1013.82 1013.41 1013.04 1012.71 1012.42 1012.17 1011.97 1011.83 1011.74 1011.73 1011.80 1011.94 1012.16 1012.45 1012.81 1013.23 1013.71
1021.43 1020.90 1020.27 1019.56 1018.81 1018.09 1017.42 1016.87 1016.44 1016.18 1016.07 1016.10 1016.24 1016.46 1016.70 1016.93 1017.10 1017.18 1017.16 1017.04 1016.81 1016.50 1016.12 1015.71 1015.27 1014.83 1014.39 1013.97 1013.56 1013.17 1012.81 1012.47 1012.16 1011.91 1011.71 1011.58 1011.54 1011.58 1011.71 1011.92 1012.22 1012.58 1013.00 1013.46
1020.92 1020.31 1019.62 1018.88 1018.13 1017.42 1016.80 1016.31 1015.98 1015.80 1015.78 1015.90 1016.11 1016.38 1016.66 1016.90 1017.07 1017.15 1017.12 1016.99 1016.76 1016.46 1016.11 1015.72 1015.31 1014.90 1014.48 1014.07 1013.66 1013.25 1012.86 1012.47 1012.13 1011.82 1011.58 1011.42 1011.36 1011.39 1011.51 1011.73 1012.03 1012.39 1012.80 1013.25
1020.46 1019.79 1019.07 1018.33 1017.61 1016.96 1016.42 1016.02 1015.77 1015.68 1015.74 1015.91 1016.17 1016.45 1016.73 1016.95 1017.10 1017.15 1017.10 1016.95 1016.71 1016.42 1016.08 1015.71 1015.32 1014.93 1014.53 1014.12 1013.70 1013.28 1012.85 1012.44 1012.05 1011.71 1011.44 1011.26 1011.18 1011.20 1011.32 1011.53 1011.83 1012.19 1012.59 1013.02
1020.14 1019.45 1018.73 1018.03 1017.37 1016.80 1016.35 1016.04 1015.88 1015.86 1015.97 1016.17 1016.43 1016.69 1016.93 1017.11 1017.21 1017.21 1017.12 1016.94 1016.69 1016.38 1016.05 1015.69 1015.31 1014.93 1014.53 1014.12 1013.69 1013.25 1012.80 1012.35 1011.94 1011.57 1011.28 1011.07 1010.98 1010.98 1011.09 1011.29 1011.58 1011.91 1012.30 1012.71
1020.03 1019.36 1018.68 1018.04 1017.47 1016.99 1016.63 1016.41 1016.31 1016.34 1016.47 1016.66 1016.88 1017.10 1017.28 1017.38 1017.41 1017.35 1017.20 1016.97 1016.70 1016.37 1016.03 1015.67 1015.29 1014.91 1014.50 1014.07 1013.63 1013.16 1012.69 1012.22 1011.78 1011.39 1011.08 1010.85 1010.73 1010.72 1010.81 1010.98 1011.24 1011.55 1011.90 1012.28
1020.20 1019.57 1018.96 1018.40 1017.92 1017.53 1017.26 1017.10 1017.04 1017.08 1017.19 1017.35 1017.51 1017.64 1017.73 1017.75 1017.69 1017.55 1017.34 1017.06 1016.75 1016.40 1016.03 1015.65 1015.26 1014.86 1014.43 1013.98 1013.51 1013.02 1012.52 1012.03 1011.57 1011.16 1010.82 1010.58 1010.43 1010.39 1010.44 1010.59 1010.80 1011.07 1011.39 1011.73
1020.62 1020.07 1019.55 1019.08 1018.68 1018.37 1018.16 1018.03 1017.99 1018.01 1018.07 1018.15 1018.22 1018.26 1018.25 1018.17 1018.02 1017.80 1017.52 1017.19 1016.83 1016.45 1016.05 1015.64 1015.22 1014.78 1014.31 1013.83 1013.33 1012.80 1012.28 1011.76 1011.28 1010.86 1010.50 1010.23 1010.06 1009.99 1010.00 1010.10 1010.27 1010.50 1010.78 1011.10
1021.25 1020.79 1020.36 1019.98 1019.65 1019.40 1019.21 1019.09 1019.02 1018.99 1018.99 1018.98 1018.95 1018.88 1018.76 1018.59 1018.35 1018.06 1017.72 1017.34 1016.93 1016.51 1016.06 1015.61 1015.13 1014.65 1014.14 1013.61 1013.06 1012.50 1011.95 1011.41 1010.91 1010.47 1010.10 1009.82 1009.62 1009.51 1009.50 1009.56 1009.69 1009.88 1010.12 1010.42
1021.98 1021.62 1021.27 1020.96 1020.69 1020.46 1020.27 1020.13 1020.01 1019.91 1019.82 1019.71 1019.58 1019.42 1019.20 1018.94 1018.64 1018.28 1017.89 1017.46 1017.01 1016.53 1016.04 1015.52 1014.99 1014.44 1013.87 1013.29 1012.69 1012.10 1011.51 1010.96 1010.45 1010.00 1009.62 1009.32 1009.11 1008.99 1008.95 1008.98 1009.08 1009.25 1009.48 1009.77
1022.74 1022.46 1022.18 1021.91 1021.66 1021.43 1021.22 1021.02 1020.84 1020.66 1020.48 1020.28 1020.06 1019.81 1019.52 1019.19 1018.83 1018.43 1017.99 1017.52 1017.02 1016.49 1015.94 1015.36 1014.76 1014.15 1013.51 1012.86 1012.22 1011.59 1010.98 1010.41 1009.89 1009.44 1009.07 1008.77 1008.57 1008.44 1008.39 1008.41 1008.51 1008.67 1008.90 1009.20
1023.44 1023.22 1022.98 1022.73 1022.48 1022.22 1021.96 1021.70 1021.44 1021.18 1020.91 1020.63 1020.34 1020.03 1019.68 1019.32 1018.92 1018.48 1018.01 1017.50 1016.96 1016.38 1015.76 1015.12 1014.44 1013.75 1013.05 1012.34 1011.65 1010.98 1010.36 1009.78 1009.27 1008.83 1008.48 1008.20 1008.01 1007.90 1007.86 1007.90 1008.00 1008.18 1008.43 1008.75
1024.06 1023.87 1023.64 1023.39 1023.10 1022.80 1022.48 1022.15 1021.81 1021.47 1021.13 1020.79 1020.44 1020.08 1019.71 1019.32 1018.89 1018.44 1017.94 1017.40 1016.82 1016.18 1015.51 1014.79 1014.05 1013.29 1012.52 1011.76 1011.03 1010.34 1009.70 1009.14 1008.64 1008.23 1007.91 1007.67 1007.51 1007.43 1007.42 1007.48 1007.61 1007.82 1008.10 1008.45
1024.59 1024.40 1024.16 1023.88 1023.55 1023.18 1022.80 1022.40 1021.99 1021.59 1021.19 1020.80 1020.42 1020.03 1019.64 1019.24 1018.80 1018.33 1017.82 1017.25 1016.62 1015.94 1015.20 1014.43 1013.62 1012.80 1011.98 1011.18 1010.42 1009.72 1009.09 1008.55 1008.08 1007.71 1007.43 1007.23 1007.12 1007.08 1007.11 1007.21 1007.38 1007.61 1007.93 1008.32
1025.04 1024.84 1024.58 1024.25 1023.86 1023.44 1022.99 1022.52 1022.06 1021.60 1021.17 1020.74 1020.34 1019.94 1019.55 1019.13 1018.70 1018.21 1017.68 1017.08 1016.42 1015.69 1014.91 1014.08 1013.22 1012.35 1011.50 1010.68 1009.92 1009.23 1008.62 1008.10 1007.68 1007.35 1007.12 1006.98 1006.91 1006.91 1006.98 1007.11 1007.32 1007.59 1007.93 1008.34
1025.44 1025.23 1024.92 1024.54 1024.11 1023.63 1023.12 1022.61 1022.10 1021.61 1021.15 1020.71 1020.29 1019.89 1019.49 1019.07 1018.63 1018.14 1017.58 1016.96 1016.27 1015.50 1014.68 1013.82 1012.93 1012.04 1011.17 1010.35 1009.60 1008.93 1008.36 1007.88 1007.51 1007.23 1007.05 1006.95 1006.92 1006.96 1007.07 1007.23 1007.45 1007.74 1008.10 1008.53
1025.81 1025.56 1025.22 1024.81 1024.33 1023.81 1023.27 1022.72 1022.18 1021.67 1021.19 1020.74 1020.32 1019.91 1019.51 1019.09 1018.64 1018.13 1017.56 1016.92 1016.20 1015.41 1014.57 1013.69 1012.79 1011.90 1011.04 1010.24 1009.52 1008.89 1008.36 1007.93 1007.60 1007.38 1007.24 1007.17 1007.18 1007.25 1007.37 1007.55 1007.78 1008.07 1008.43 1008.85
1026.11 1025.84 1025.48 1025.04 1024.54 1023.99 1023.43 1022.87 1022.32 1021.79 1021.31 1020.86 1020.43 1020.02 1019.61 1019.19 1018.72 1018.21 1017.62 1016.96 1016.23 1015.43 1014.58 1013.70 1012.81 1011.94 1011.11 1010.35 1009.67 1009.09 1008.61 1008.23 1007.95 1007.77 1007.66 1007.63 1007.65 1007.73 1007.86 1008.04 1008.26 1008.54 1008.88 1009.28
1026.33 1026.05 1025.67 1025.22 1024.71 1024.16 1023.59 1023.03 1022.48 1021.96 1021.47 1021.02 1020.59 1020.18 1019.77 1019.33 1018.86 1018.33 1017.73 1017.07 1016.33 1015.54 1014.70 1013.84 1012.98 1012.15 1011.36 1010.65 1010.02 1009.49 1009.06 1008.73 1008.49 1008.34 1008.25 1008.23 1008.27 1008.35 1008.47 1008.64 1008.85 1009.10 1009.41 1009.78
1026.43 1026.14 1025.76 1025.32 1024.81 1024.27 1023.71 1023.16 1022.62 1022.10 1021.62 1021.17 1020.74 1020.33 1019.90 1019.46 1018.97 1018.44 1017.84 1017.18 1016.45 1015.67 1014.86 1014.04 1013.22 1012.43 1011.70 1011.05 1010.48 1010.00 1009.62 1009.32 1009.12 1008.99 1008.92 1008.91 1008.94 1009.01 1009.12 1009.27 1009.46 1009.69 1009.97 1010.29
1026.38 1026.09 1025.73 1025.29 1024.80 1024.28 1023.73 1023.19 1022.67 1022.16 1021.69 1021.24 1020.80 1020.38 1019.95 1019.50 1019.00 1018.47 1017.87 1017.22 1016.51 1015.77 1014.99 1014.21 1013.45 1012.72 1012.05 1011.45 1010.93 1010.50 1010.16 1009.90 1009.72 1009.61 1009.55 1009.54 1009.57 1009.63 1009.73 1009.86 1010.03 1010.23 1010.48 1010.77
1026.20 1025.92 1025.56 1025.14 1024.66 1024.15 1023.63 1023.10 1022.59 1022.09 1021.61 1021.16 1020.72 1020.29 1019.85 1019.39 1018.89 1018.35 1017.77 1017.14 1016.46 1015.75 1015.02 1014.29 1013.59 1012.92 1012.30 1011.76 1011.29 1010.91 1010.60 1010.37 1010.21 1010.11 1010.06 1010.05 1010.07 1010.13 1010.22 1010.33 1010.49 1010.67 1010.90 1011.16
1025.94 1025.65 1025.29 1024.87 1024.41 1023.91 1023.39 1022.87 1022.35 1021.85 1021.37 1020.91 1020.46 1020.01 1019.56 1019.09 1018.60 1018.07 1017.50 1016.89 1016.24 1015.58 1014.90 1014.23 1013.58 1012.97 1012.41 1011.92 1011.50 1011.15 1010.88 1010.67 1010.52 1010.43 1010.39 1010.38 1010.40 1010.46 1010.54 1010.66 1010.80 1010.97 1011.18 1011.43
1025.65 1025.34 1024.97 1024.55 1024.07 1023.57 1023.05 1022.52 1022.00 1021.48 1020.99 1020.51 1020.04 1019.57 1019.11 1018.63 1018.13 1017.61 1017.06 1016.47 1015.87 1015.25 1014.62 1014.01 1013.42 1012.86 1012.36 1011.91 1011.54 1011.23 1010.98 1010.79 1010.66 1010.58 1010.54 1010.54 1010.56 1010.62 1010.71 1010.82 1010.96 1011.13 1011.33 1011.55
Thickness
5493 5499 5499 5500 5504 5504 5499 5497 5496 5505 5507 5515 5513 5510 5507 5504 5502 5501 5500 5500 5499 5497 5496 5498 5499 5499 5500 5500 5501 5500 5500 5499 5499 5499 5499 5499 5500 5500 5500 5499 5499 5499 5499 5498
5478 5487 5487 5491 5499 5499 5499 5500 5498 5501 5505 5510 5507 5502 5498 5495 5494 5493 5492 5491 5490 5489 5489 5489 5489 5490 5491 5491 5491 5491 5491 5491 5491 5490 5490 5490 5490 5490 5490 5489 5488 5488 5489 5488
5461 5473 5476 5481 5494 5493 5493 5494 5494 5496 5500 5497 5494 5492 5490 5486 5485 5484 5483 5482 5481 5479 5479 5480 5480 5481 5481 5482 5482 5482 5481 5481 5481 5481 5481 5481 5481 5480 5480 5479 5478 5478 5477 5476
5446 5456 5455 5487 5493 5492 5487 5487 5487 5487 5487 5486 5485 5483 5478 5476 5474 5473 5473 5472 5471 5470 5471 5471 5471 5472 5473 5473 5473 5473 5472 5472 5472 5471 5471 5471 5471 5470 5469 5468 5468 5467 5466 5465
5436 5441 5458 5472 5477 5476 5474 5474 5474 5474 5474 5473 5470 5468 5465 5466 5465 5464 5463 5463 5462 5462 5462 5463 5463 5463 5464 5464 5464 5464 5463 5463 5463 5463 5462 5462 5461 5460 5458 5458 5457 5456 5455 5454
5428 5436 5449 5461 5465 5468 5466 5460 5463 5461 5459 5458 5458 5454 5456 5456 5455 5454 5453 5452 5452 5452 5452 5453 5454 5454 5454 5453 5453 5454 5454 5453 5453 5452 5452 5451 5450 5448 5447 5446 5446 5445 5443 5442
5422 5428 5438 5445 5449 5455 5448 5448 5447 5446 5446 5445 5444 5445 5445 5444 5444 5443 5442 5442 5441 5441 5441 5442 5443 5443 5443 5443 5443 5443 5443 5443 5442 5442 5441 5440 5438 5437 5435 5434 5433 5431 5430 5429
5411 5414 5426 5431 5433 5431 5431 5430 5431 5432 5432 5431 5430 5432 5432 5432 5431 5431 5430 5430 5429 5429 5430 5431 5431 5432 5432 5432 5433 5433 5433 5432 5431 5431 5430 5428 5426 5424 5422 5421 5419 5418 5416 5416
5407 5412 5412 5413 5415 5416 5416 5415 5417 5417 5418 5419 5419 5418 5419 5418 5417 5417 5417 5417 5417 5417 5417 5418 5419 5419 5420 5421 5422 5422 5422 5421 5420 5419 5417 5416 5414 5412 5410 5408 5406 5405 5404 5403
5391 5396 5397 5398 5401 5402 5402 5402 5403 5404 5405 5407 5406 5405 5404 5404 5404 5404 5404 5404 5404 5404 5405 5405 5406 5407 5407 5409 5409 5409 5409 5408 5407 5406 5404 5403 5401 5400 5398 5396 5394 5393 5392 5390
5380 5384 5384 5387 5386 5388 5388 5389 5390 5391 5392 5392 5393 5392 5391 5390 5390 5390 5390 5390 5390 5390 5391 5392 5393 5394 5395 5396 5397 5396 5395 5394 5393 5392 5390 5389 5388 5387 5386 5385 5383 5382 5380 5378
5372 5372 5371 5373 5374 5375 5375 5375 5376 5376 5376 5377 5378 5378 5378 5377 5376 5376 5376 5377 5377 5377 5378 5379 5380 5382 5382 5383 5383 5383 5382 5381 5380 5378 5377 5375 5373 5373 5373 5372 5372 5371 5369 5367
5358 5359 5359 5360 5360 5360 5360 5360 5361 5362 5362 5362 5362 5363 5363 5363 5363 5363 5363 5363 5363 5364 5365 5366 5367 5368 5369 5370 5370 5369 5368 5367 5366 5365 5363 5361 5360 5359 5359 5360 5359 5358 5357 5355
5344 5345 5346 5346 5346 5346 5346 5347 5348 5348 5348 5348 5348 5349 5349 5349 5349 5349 5349 5350 5351 5351 5352 5353 5353 5354 5355 5356 5356 5355 5354 5354 5353 5351 5350 5348 5347 5346 5345 5345 5344 5343 5343 5342
5332 5334 5334 5333 5334 5334 5334 5334 5334 5334 5333 5334 5334 5335 5335 5336 5336 5336 5336 5337 5338 5338 5338 5339 5340 5340 5342 5342 5342 5342 5341 5340 5339 5338 5337 5336 5335 5334 5333 5331 5330 5329 5329 5329
5320 5321 5322 5322 5321 5320 5320 5320 5320 5319 5320 5320 5320 5320 5321 5322 5322 5322 5323 5324 5324 5324 5324 5325 5326 5327 5328 5328 5328 5328 5328 5328 5327 5326 5325 5323 5322 5321 5320 5318 5317 5316 5315 5314
5309 5309 5308 5308 5308 5307 5307 5306 5306 5305 5306 5307 5307 5307 5308 5308 5308 5308 5309 5309 5310 5310 5311 5312 5312 5313 5314 5315 5315 5315 5315 5314 5315 5313 5312 5311 5310 5308 5307 5306 5304 5303 5302 5301
5300 5299 5298 5297 5296 5295 5294 5294 5293 5293 5293 5294 5294 5295 5294 5294 5294 5295 5295 5296 5297 5297 5298 5298 5299 5300 5301 5302 5302 5302 5301 5301 5300 5300 5299 5298 5297 5296 5294 5293 5292 5290 5289 5288
5288 5288 5287 5287 5285 5284 5283 5282 5281 5281 5281 5281 5281 5281 5281 5281 5281 5282 5282 5282 5283 5283 5284 5285 5287 5288 5288 5288 5289 5289 5288 5288 5287 5287 5286 5286 5284 5283 5281 5280 5279 5278 5277 5276
5277 5277 5276 5275 5274 5273 5272 5271 5270 5270 5269 5269 5269 5269 5269 5269 5269 5269 5269 5269 5269 5270 5271 5273 5274 5275 5275 5275 5276 5275 5275 5274 5274 5273 5273 5272 5271 5270 5269 5268 5267 5266 5266 5265
5266 5266 5265 5265 5264 5263 5261 5260 5260 5259 5259 5259 5258 5258 5257 5257 5257 5256 5257 5258 5259 5259 5260 5262 5262 5262 5263 5263 5263 5262 5261 5261 5261 5261 5260 5260 5259 5259 5258 5257 5256 5256 5255 5255
5256 5256 5255 5255 5254 5252 5251 5251 5250 5250 5249 5249 5248 5247 5247 5247 5247 5247 5247 5247 5248 5249 5250 5250 5250 5251 5251 5252 5251 5250 5249 5249 5249 5249 5249 5248 5248 5248 5247 5247 5246 5245 5245 5244
5247 5246 5245 5245 5244 5242 5241 5241 5241 5241 5240 5239 5239 5238 5238 5237 5236 5237 5237 5237 5238 5239 5239 5239 5240 5241 5242 5241 5240 5239 5238 5238 5238 5238 5238 5238 5238 5238 5238 5237 5237 5236 5235 5235
5238 5237 5236 5235 5234 5233 5232 5232 5231 5231 5230 5230 5229 5229 5228 5227 5227 5226 5226 5227 5228 5229 5229 5230 5231 5232 5232 5230 5229 5229 5229 5228 5229 5229 5229 5229 5230 5229 5229 5229 5228 5228 5227 5227
5228 5227 5226 5225 5225 5224 5224 5223 5222 5222 5222 5222 5221 5220 5218 5218 5217 5216 5216 5217 5218 5219 5219 5219 5221 5221 5220 5220 5219 5220 5220 5220 5221 5221 5221 5221 5221 5221 5221 5221 5221 5220 5220 5219
5218 5218 5217 5216 5215 5215 5214 5214 5213 5213 5213 5212 5211 5211 5210 5209 5209 5208 5208 5208 5208 5209 5209 5209 5209 5210 5211 5211 5211 5211 5212 5212 5212 5213 5213 5214 5214 5214 5214 5214 5214 5214 5214 5214
5209 5208 5208 5207 5207 5206 5205 5205 5204 5204 5204 5203 5203 5203 5202 5202 5201 5201 5201 5200 5200 5201 5201 5201 5202 5202 5202 5203 5203 5204 5204 5205 5205 5206 5206 5207 5207 5208 5208 5208 5209 5209 5209 5210